Regional Weather Roundup
Issued by NWS

Home | Current Version | Previous Version | Graphics & Text | Print | Product List | Glossary On
Versions: 1 2 3 4 5 6 7 8 9 10 11 12 13 14 15 16 17 18 19 20 21 22 23 24 25 26 27 28 29 30 31 32 33 34 35 36 37 38 39 40 41 42 43 44 45 46 47 48 49 50
000
ASUS43 KLSX 260007
RWRMO

WEATHER SUMMARY FOR MISSOURI
NATIONAL WEATHER SERVICE SPRINGFIELD MO
600 PM CST THU DEC 25 2014

NOTE: "FAIR" INDICATES FEW OR NO CLOUDS BELOW 12,000 FEET WITH NO
       SIGNIFICANT WEATHER AND/OR OBSTRUCTIONS TO VISIBILITY.
       CURRENT SKY AND/OR WEATHER CONDITIONS ARE NOT AVAILABLE FOR
       CHILLICOTHE AND FARMINGTON.

MOZ001>031-035>038-043-044-053-054-260100-
...NORTHERN AND WESTERN MISSOURI...

CITY           SKY/WX    TMP DP  RH WIND       PRES   REMARKS
KANSAS CTY INT CLOUDY    50  29  44 S21       29.70R
6HR MIN TEMP:  48; 6HR MAX TEMP:  53;

KANSAS C DTWN  CLOUDY    52  28  39 S14G26    29.73R
6HR MIN TEMP:  51; 6HR MAX TEMP:  56; 6HR PCP: TRACE;

LEE`S SUMMIT   CLOUDY    50  29  44 S15G25    29.74R
6HR MIN TEMP:  47; 6HR MAX TEMP:  54;

ST JOSEPH      CLOUDY    49  31  49 S15       29.70R
6HR MIN TEMP:  48; 6HR MAX TEMP:  54;

CHILLICOTHE      N/A     50  31  48 S12       29.77R
6HR MIN TEMP:  47; 6HR MAX TEMP:  52;

KIRKSVILLE     PTCLDY    43  32  65 S14       29.80R
6HR MIN TEMP:  42; 6HR MAX TEMP:  51;


$$
MOZ066>068-077>081-088>096-101>105-260100-
...SOUTHWEST MISSOURI...

CITY           SKY/WX    TMP DP  RH WIND       PRES   REMARKS
SPRINGFIELD    PTCLDY    48  28  46 S17       29.87R
6HR MIN TEMP:  47; 6HR MAX TEMP:  54;

JOPLIN         MOCLDY    51  26  37 S18G26    29.82S
6HR MIN TEMP:  50; 6HR MAX TEMP:  56;


$$
MOZ032>034-039>042-045>050-055>058-069>072-260100-
...CENTRAL MISSOURI...

CITY           SKY/WX    TMP DP  RH WIND       PRES   REMARKS
COLUMBIA       PTCLDY    47  30  51 S22G29    29.86R
6HR MIN TEMP:  46; 6HR MAX TEMP:  52;

JEFFERSON CITY MOCLDY    49  29  46 SE12G20   29.89R
6HR MIN TEMP:  47; 6HR MAX TEMP:  54;

ROLLA          PTCLDY    45  30  55 S15G24    29.90S
6HR MIN TEMP:  44; 6HR MAX TEMP:  50;

SEDALIA        CLOUDY    49  30  48 S17       29.81R
6HR MIN TEMP:  48; 6HR MAX TEMP:  54;

WHITEMAN AFB   MOCLDY    49  30  49 S15       29.77R
WARRENSBURG    CLOUDY    50  30  46 S14G22    29.76S
OSAGE BEACH    CLOUDY    48  28  46 S9G17     29.88R

$$
MOZ051-052-059>065-260100-
...EAST CENTRAL MISSOURI...

CITY           SKY/WX    TMP DP  RH WIND       PRES   REMARKS
ST LOUIS INTL  MOCLDY    49  32  52 S10       29.98S
6HR MIN TEMP:  48; 6HR MAX TEMP:  54;

SPIRIT OF STL  PTCLDY    48  30  49 S9        29.96S
6HR MIN TEMP:  48; 6HR MAX TEMP:  53;

ST CHARLES     PTCLDY    45  34  65 S14       29.96S
6HR MIN TEMP:  44; 6HR MAX TEMP:  53;


$$
MOZ072>076-082>087-097>100-106>115-260100-
...SOUTH CENTRAL AND SOUTHEAST MISSOURI...

CITY           SKY/WX    TMP DP  RH WIND       PRES   REMARKS
CAPE GIRARDEAU CLEAR     43  36  76 S9        30.08S
6HR MIN TEMP:  42; 6HR MAX TEMP:  49;

FARMINGTON     CLEAR     43  34  70 SE12G17   30.02R
6HR MIN TEMP:  43; 6HR MAX TEMP:  50;

POPLAR BLUFF   CLEAR     45  36  70 S8        30.07R
6HR MIN TEMP:  44; 6HR MAX TEMP:  51;

WEST PLAINS    PTCLDY    46  28  49 S12       29.99R
6HR MIN TEMP:  46; 6HR MAX TEMP:  50;


$$


USA.gov is the U.S. government's official web portal to all federal, state and local government web resources and services.